Location: Nitra
(0.0000°N, 18.0833°E)
Time: 05:18:24
(UTC+01:00)

Cosmos 1825 - Pass Details

Date: 24 January 2021
Orbit: 501 x 507 km, 82.5° (Epoch: 04 March)

Event Time Altitude Azimuth Distance (km) Brightness Sun altitude
Rises 19:27:49 0° 181° (S) 2,597 6.0 -20.7°
Reaches altitude 10° 19:29:56 10° 179° (S) 1,711 5.0 -21.2°
Enters shadow 19:33:03 57° 155° (SSE) 596 2.4 -22.0°
